[[{"header":{"parameterUnit":"m.s-1","parameterCategory":1,"la1":30.2991,"la2":30.254,"lo1":-89.0895,"lo2":-89.0444,"dy":0.0017,"dx":0.0017,"nx":28,"ny":28,"refTime":"2025-08-31T09:00:00:Z","depth":0,"parameterNumber":2,"parameterNumberName":"U-component_of_WINDS"},"data":[0,0,0,0,0,0,0,0,0,0,0,0,0,0,0,0,0,0,0,0,0,0,0,0,0,0,0,0,0,0,0,0,0,0,0,0,0,0,0,0,0,0,0,0,0,0,0,0,0,0,0,0,0,0,0,0,0,0,-2.4676,-2.4676,0,-2.4743,-2.4744,-2.4745,-2.4645,-2.4641,-2.4638,-2.4635,-2.4707,-2.4712,-2.4717,0,0,0,0,0,0,0,0,0,0,0,0,0,-2.4462,-2.4467,-2.4676,-2.4676,-2.4677,-2.4743,-2.4744,-2.4745,-2.4646,-2.4641,-2.4637,-2.4633,-2.4705,-2.4711,-2.4717,0,0,0,0,0,0,0,0,0,0,0,0,0,-2.4545,-2.4468,-2.4675,-2.4636,-2.4633,-2.4743,-2.4744,-2.4745,-2.4646,-2.4641,-2.4636,-2.4631,-2.4703,-2.4711,-2.4718,-2.4872,0,0,-2.4742,-2.4745,0,0,0,0,0,0,0,0,-2.4541,-2.4553,-2.4641,-2.4638,-2.4635,-2.468,-2.4695,-2.4788,-2.4648,-2.4641,-2.4635,-2.4628,-2.4702,-2.471,-2.4734,-2.4875,-2.4878,-2.4743,-2.4747,-2.4751,-2.4753,0,0,0,0,0,0,0,-2.4535,-2.455,-2.4702,-2.4642,-2.4639,-2.4615,-2.4621,-2.4712,-2.4701,-2.4641,-2.4634,-2.4644,-2.47,-2.4727,-2.4735,-2.4879,-2.4743,-2.4749,-2.4754,-2.4757,-2.515,-2.5155,0,0,0,0,0,0,-2.4534,-2.4546,-2.47,-2.4704,-2.4574,-2.4623,-2.463,-2.4671,-2.4699,-2.4699,-2.4648,-2.4639,-2.4716,-2.4726,-2.4737,-2.492,-2.4751,-2.4758,-2.4763,-2.5144,-2.5151,-2.5157,0,0,0,0,0,0,-2.453,-2.4549,-2.4697,-2.4623,-2.464,-2.4632,-2.468,-2.4675,-2.4702,-2.4704,-2.4702,-2.4678,-2.4712,-2.4726,-2.4839,-2.4921,-2.4762,-2.4769,-2.5137,-2.5146,-2.5154,-2.5285,0,0,0,0,0,0,-2.4524,-2.4548,-2.4605,-2.4625,-2.4645,-2.4798,-2.4685,-2.468,-2.4716,-2.4704,-2.4731,-2.4731,-2.4709,-2.4828,-2.4847,-2.4929,-2.4775,-2.513,-2.5141,-2.5152,-2.5274,-2.5297,-2.5317,0,0,0,0,0,-2.4517,-2.464,-2.4609,-2.4628,-2.4716,-2.4803,-2.4814,-2.4786,-2.4722,-2.4781,-2.4782,-2.473,-2.4908,-2.484,-2.4861,-2.4946,-2.5125,-2.5138,-2.5151,-2.5264,-2.5292,-2.5317,0,0,0,0,0,0,-2.4631,-2.4642,-2.4607,-2.4741,-2.4771,-2.4786,-2.4858,-2.4817,-2.4867,-2.4854,-2.4818,-2.4825,-2.4946,-2.4957,-2.4881,-2.5096,-2.5006,-2.5024,-2.5085,-2.5112,-2.5134,-2.513,-2.4781,0,0,0,0,0,-2.4671,-2.474,-2.4746,-2.4863,-2.488,-2.4867,-2.4903,-2.4879,-2.491,-2.4922,-2.4932,-2.4965,-2.5028,-2.507,-2.5129,-2.5274,-2.5279,-2.5343,-2.5365,-2.5383,-2.5399,-2.5478,-2.5506,-2.52,-2.52,-2.52,0,0,-2.4756,-2.4771,-2.4816,-2.4886,-2.4907,-2.498,-2.4878,-2.4959,-2.5013,-2.4935,-2.5042,-2.505,-2.5084,-2.5214,-2.5272,-2.5227,-2.5484,-2.5399,-2.5413,-2.542,-2.5494,-2.5523,-2.5549,-2.5209,-2.5207,-2.5206,0,0,-2.4948,-2.4965,-2.5065,-2.5088,-2.5121,-2.5111,-2.5135,-2.5156,-2.5158,-2.5264,-2.5208,-2.5271,-2.5381,-2.5407,-2.5435,-2.5637,-2.5592,-2.5657,-2.5773,-2.585,-2.5874,-2.5895,-2.5968,-2.5995,-2.5673,-2.5673,-2.5674,0,-2.505,-2.5156,-2.5122,-2.5207,-2.524,-2.5171,-2.5272,-2.5296,-2.5347,-2.5372,-2.532,-2.5457,-2.5475,-2.561,-2.566,-2.5684,-2.5711,-2.5655,-2.5873,-2.5894,-2.5913,-2.5983,-2.601,-2.5681,-2.568,-2.568,-2.5679,0,-2.528,-2.5355,-2.5431,-2.5481,-2.5522,-2.5615,-2.5596,-2.5642,-2.5614,-2.561,-2.572,-2.5739,-2.58,-2.583,-2.5804,-2.5963,-2.5934,-2.5878,-2.5788,-2.5951,-2.6016,-2.6042,-2.5693,-2.569,-2.5687,-2.5685,0,0,-2.5547,-2.5576,-2.5605,-2.5627,-2.5658,-2.5716,-2.5805,-2.5864,-2.5905,-2.5942,-2.6018,-2.6112,-2.606,-2.6092,-2.6068,-2.6136,-2.6296,-2.6072,-2.6072,-2.6114,-2.6474,-2.6517,-2.6548,-2.6265,-2.627,-2.6274,-2.6471,0,-2.574,-2.5894,-2.5866,-2.6017,-2.6086,-2.6022,-2.61,-2.6128,-2.6127,-2.6186,-2.6184,-2.6252,-2.6178,-2.6197,-2.6261,-2.6263,-2.6368,-2.6248,-2.6337,-2.634,-2.6332,-2.6581,-2.6627,-2.6812,-2.6496,-2.6501,-2.6504,0,-2.5985,-2.6031,-2.6189,-2.6209,-2.6236,-2.6307,-2.636,-2.6416,-2.6447,-2.6441,-2.6477,-2.644,-2.653,-2.6437,-2.6562,-2.6481,-2.6515,-2.6522,-2.6528,-2.6537,-2.6433,-2.6598,-2.687,-2.6899,-2.6543,-2.654,-2.6537,0,-2.6166,-2.6266,-2.6374,-2.6395,-2.6421,-2.6472,-2.6486,-2.6511,-2.6548,-2.6594,-2.6618,-2.6674,-2.6705,-2.6749,-2.6729,-2.6663,-2.6859,-2.6763,-2.6858,-2.6859,-2.6903,-2.6901,-2.7186,-2.6923,-2.6923,-2.6922,-2.6921,0,-2.6384,-2.6484,-2.6456,-2.6522,-2.6632,-2.6598,-2.6708,-2.6714,-2.6737,-2.6804,-2.6751,-2.6816,-2.6784,-2.6846,-2.6831,-2.6938,-2.6952,-2.6951,-2.6946,-2.6956,-2.6957,-2.6979,-2.6967,-2.6929,-2.6928,-2.6926,-2.6925,0,-2.6606,-2.659,-2.6704,-2.6719,-2.6725,-2.6805,-2.6818,-2.6881,-2.6875,-2.6961,-2.6979,-2.697,-2.7041,-2.7024,-2.7102,-2.7091,-2.7226,-2.7204,-2.7216,-2.7211,-2.7307,-2.7299,-2.7619,-2.7659,-2.7368,-2.7371,-2.7373,0,-2.6747,-2.6822,-2.6845,-2.6885,-2.6903,-2.6969,-2.7007,-2.6977,-2.7018,-2.7059,-2.7117,-2.7182,-2.7233,-2.7349,-2.7351,-2.741,-2.739,-2.7498,-2.7399,-2.7407,-2.7394,-2.739,-2.7398,-2.7518,-2.7522,-2.7524,-2.7527,0,-2.7,-2.6989,-2.7045,-2.7099,-2.7145,-2.7186,-2.7222,-2.7259,-2.7232,-2.7281,-2.7352,-2.7392,-2.7471,-2.7537,-2.7592,-2.7606,-2.7563,-2.7557,-2.7583,-2.7595,-2.7599,-2.76,-2.7271,-2.7551,-2.7548,-2.7547,-2.7545,-2.7544,-2.7186,-2.725,-2.7276,-2.7341,-2.7365,-2.74,-2.7459,-2.7461,-2.7519,-2.758,-2.7559,-2.7641,-2.767,-2.7738,-2.7759,-2.7823,-2.7783,-2.7819,-2.7829,-2.7839,-2.7851,-2.7588,-2.7833,-2.7832,-2.7832,-2.7831,-2.7831,0,-2.7438,-2.7451,-2.7511,-2.7563,-2.7614,-2.7567,-2.7604,-2.7651,-2.7723,-2.7753,-2.7804,-2.7886,-2.795,-2.7957,-2.8017,-2.8067,-2.8049,-2.8085,-2.8081,-2.8086,-2.7883,-2.7856,-2.8098,-2.8098,-2.8098,-2.8098,-2.8098,-2.8098,-2.7575,-2.768,-2.7672,-2.779,-2.7802,-2.7882,-2.7907,-2.794,-2.7964,-2.8058,-2.811,-2.8113,-2.8134,-2.8196,-2.8253,-2.8253,-2.8279,-2.8322,-2.8315,-2.8126,-2.81,-2.8074,-2.8049,-2.8328,-2.8328,-2.8512,-2.8514,-2.8515]},{"header":{"parameterUnit":"m.s-1","parameterCategory":1,"la1":30.2991,"la2":30.254,"lo1":-89.0895,"lo2":-89.0444,"dy":0.0017,"dx":0.0017,"nx":28,"ny":28,"refTime":"2025-08-31T09:00:00:Z","depth":0,"parameterNumber":3,"parameterNumberName":"V-component_of_WINDS"},"data":[0,0,0,0,0,0,0,0,0,0,0,0,0,0,0,0,0,0,0,0,0,0,0,0,0,0,0,0,0,0,0,0,0,0,0,0,0,0,0,0,0,0,0,0,0,0,0,0,0,0,0,0,0,0,0,0,0,0,-2.8014,-2.8014,0,-2.8021,-2.8021,-2.8021,-2.799,-2.799,-2.7989,-2.7988,-2.7994,-2.7995,-2.7996,0,0,0,0,0,0,0,0,0,0,0,0,0,-2.7971,-2.7972,-2.8014,-2.8014,-2.8014,-2.8021,-2.8021,-2.8021,-2.7991,-2.7989,-2.7988,-2.7987,-2.7994,-2.7995,-2.7997,0,0,0,0,0,0,0,0,0,0,0,0,0,-2.7985,-2.7972,-2.8014,-2.7999,-2.7998,-2.8021,-2.8021,-2.8021,-2.7991,-2.7989,-2.7988,-2.7987,-2.7994,-2.7995,-2.7997,-2.8033,0,0,-2.8001,-2.8002,0,0,0,0,0,0,0,0,-2.7985,-2.7987,-2.8001,-2.8001,-2.7999,-2.8004,-2.8009,-2.8025,-2.7991,-2.7994,-2.7988,-2.7986,-2.7998,-2.8,-2.8004,-2.8034,-2.8034,-2.8001,-2.8002,-2.8003,-2.8004,0,0,0,0,0,0,0,-2.7984,-2.7986,-2.8017,-2.8002,-2.8,-2.7992,-2.7993,-2.8012,-2.8004,-2.7993,-2.7991,-2.7992,-2.7998,-2.8002,-2.8004,-2.8034,-2.8001,-2.8003,-2.8004,-2.8004,-2.8093,-2.8094,0,0,0,0,0,0,-2.7985,-2.7986,-2.8016,-2.8017,-2.7988,-2.7994,-2.7995,-2.8003,-2.8003,-2.8002,-2.7994,-2.7991,-2.8001,-2.8002,-2.8004,-2.8046,-2.8003,-2.8005,-2.8005,-2.8091,-2.8093,-2.8095,0,0,0,0,0,0,-2.7984,-2.7988,-2.8016,-2.8001,-2.8004,-2.7996,-2.8006,-2.8004,-2.8009,-2.8003,-2.8002,-2.8,-2.8,-2.8002,-2.8026,-2.8046,-2.8005,-2.8007,-2.809,-2.8092,-2.8094,-2.813,0,0,0,0,0,0,-2.7983,-2.7988,-2.8002,-2.8001,-2.8005,-2.8039,-2.8008,-2.8005,-2.8012,-2.8009,-2.8009,-2.8008,-2.7999,-2.8024,-2.8028,-2.8047,-2.8008,-2.8088,-2.8091,-2.8093,-2.8127,-2.8134,-2.8139,0,0,0,0,0,-2.7981,-2.8012,-2.8003,-2.8007,-2.8023,-2.804,-2.8042,-2.8031,-2.8014,-2.8028,-2.8024,-2.8008,-2.8043,-2.8027,-2.803,-2.8051,-2.8087,-2.809,-2.8093,-2.8125,-2.8132,-2.8139,0,0,0,0,0,0,-2.8015,-2.8012,-2.8001,-2.8033,-2.8037,-2.8035,-2.8052,-2.8039,-2.8048,-2.8044,-2.803,-2.803,-2.8057,-2.8056,-2.8038,-2.8085,-2.8062,-2.8066,-2.8085,-2.8092,-2.8097,-2.8096,-2.8009,0,0,0,0,0,-2.8026,-2.8041,-2.8037,-2.8065,-2.8068,-2.806,-2.8067,-2.8058,-2.8061,-2.8063,-2.8061,-2.8064,-2.8076,-2.8084,-2.8095,-2.8127,-2.8126,-2.8143,-2.8149,-2.8154,-2.8157,-2.8173,-2.818,-2.8105,-2.8105,-2.8105,0,0,-2.8049,-2.8049,-2.806,-2.8072,-2.8074,-2.8089,-2.8061,-2.8079,-2.8089,-2.8065,-2.8088,-2.8086,-2.8089,-2.8118,-2.813,-2.8118,-2.8177,-2.8158,-2.8161,-2.8162,-2.8177,-2.8184,-2.819,-2.8107,-2.8107,-2.8107,0,0,-2.8099,-2.8101,-2.8124,-2.8126,-2.813,-2.8124,-2.8129,-2.8129,-2.8127,-2.815,-2.8131,-2.8144,-2.8165,-2.8167,-2.8171,-2.8221,-2.8206,-2.8225,-2.8254,-2.827,-2.8276,-2.8281,-2.8297,-2.8304,-2.8228,-2.8228,-2.8228,0,-2.8127,-2.8149,-2.8137,-2.8155,-2.8161,-2.814,-2.8162,-2.8165,-2.8172,-2.8176,-2.8163,-2.8188,-2.8188,-2.8216,-2.8228,-2.8233,-2.8238,-2.8224,-2.8276,-2.8281,-2.8286,-2.8301,-2.8308,-2.8231,-2.823,-2.823,-2.823,0,-2.8183,-2.8199,-2.8217,-2.8223,-2.8231,-2.8251,-2.8242,-2.8251,-2.8241,-2.8237,-2.8259,-2.8259,-2.8269,-2.8275,-2.8266,-2.8301,-2.8294,-2.8279,-2.8254,-2.8295,-2.8309,-2.8315,-2.8234,-2.8233,-2.8232,-2.8232,0,0,-2.8254,-2.8253,-2.826,-2.8262,-2.8264,-2.8275,-2.8295,-2.8304,-2.8311,-2.8317,-2.8332,-2.8349,-2.8335,-2.834,-2.833,-2.8345,-2.8382,-2.8327,-2.8327,-2.8337,-2.842,-2.8431,-2.8438,-2.8373,-2.8374,-2.8375,-2.842,0,-2.8301,-2.8334,-2.8323,-2.8356,-2.8369,-2.8349,-2.8366,-2.8368,-2.8364,-2.8375,-2.8371,-2.8383,-2.8364,-2.8366,-2.8379,-2.8375,-2.8399,-2.8372,-2.8386,-2.8386,-2.8385,-2.8446,-2.8457,-2.85,-2.8425,-2.8426,-2.8427,0,-2.8361,-2.8368,-2.8402,-2.8401,-2.8406,-2.8421,-2.8428,-2.8439,-2.8441,-2.8437,-2.8442,-2.843,-2.8447,-2.8424,-2.8448,-2.8429,-2.8435,-2.8433,-2.8435,-2.8435,-2.8408,-2.8446,-2.8513,-2.8519,-2.8436,-2.8435,-2.8435,0,-2.8408,-2.8426,-2.8448,-2.8451,-2.845,-2.8461,-2.8461,-2.8462,-2.8468,-2.8474,-2.8478,-2.8486,-2.8491,-2.8497,-2.8487,-2.8471,-2.8512,-2.8488,-2.8508,-2.8509,-2.8517,-2.8516,-2.8584,-2.8522,-2.8522,-2.8522,-2.8522,0,-2.8461,-2.8482,-2.8469,-2.8483,-2.8506,-2.8493,-2.8516,-2.8514,-2.8514,-2.8527,-2.851,-2.8522,-2.8509,-2.8519,-2.8512,-2.8532,-2.8534,-2.8531,-2.8528,-2.8532,-2.8532,-2.8534,-2.8531,-2.8524,-2.8523,-2.8523,-2.8523,0,-2.8517,-2.8509,-2.8532,-2.8529,-2.8529,-2.8545,-2.8543,-2.8555,-2.855,-2.8566,-2.8568,-2.856,-2.8572,-2.8563,-2.8574,-2.8569,-2.8595,-2.8589,-2.8594,-2.8592,-2.8613,-2.8611,-2.8683,-2.8692,-2.8626,-2.8626,-2.8627,0,-2.8551,-2.8567,-2.8565,-2.8572,-2.8573,-2.8585,-2.8591,-2.8579,-2.8586,-2.8589,-2.8601,-2.8611,-2.8618,-2.8637,-2.8632,-2.864,-2.8633,-2.8658,-2.8634,-2.8637,-2.8632,-2.8631,-2.8632,-2.8663,-2.8664,-2.8664,-2.8665,0,-2.8612,-2.8607,-2.8616,-2.8624,-2.8631,-2.8637,-2.8641,-2.8647,-2.8635,-2.8643,-2.8655,-2.866,-2.8672,-2.8681,-2.8688,-2.8687,-2.8674,-2.8672,-2.8677,-2.868,-2.8682,-2.868,-2.8606,-2.8671,-2.867,-2.867,-2.8669,-2.8669,-2.8657,-2.8669,-2.867,-2.8681,-2.8682,-2.8686,-2.8697,-2.8693,-2.8703,-2.8711,-2.8703,-2.8717,-2.8718,-2.8725,-2.8726,-2.8736,-2.8726,-2.8733,-2.8735,-2.8737,-2.8739,-2.8682,-2.8737,-2.8737,-2.8737,-2.8737,-2.8737,0,-2.8716,-2.8715,-2.8725,-2.8731,-2.8739,-2.8726,-2.8729,-2.8737,-2.8749,-2.8751,-2.8758,-2.8771,-2.878,-2.8776,-2.8784,-2.8793,-2.8786,-2.8795,-2.8794,-2.8793,-2.8748,-2.8743,-2.88,-2.88,-2.88,-2.88,-2.88,-2.88,-2.8747,-2.8768,-2.8763,-2.8783,-2.8782,-2.8795,-2.8798,-2.8802,-2.8803,-2.8818,-2.8825,-2.8822,-2.8822,-2.8829,-2.8837,-2.8835,-2.8839,-2.8849,-2.8845,-2.8803,-2.8797,-2.8791,-2.8785,-2.885,-2.885,-2.8889,-2.889,-2.889]}]]